When you browse on this site, cookies collect data to enhance your experience and personalize the content and advertising you see.
Visit our Privacy Policy to learn more. By continuing to use the site, you agree to this use of cookies and data.
  • In Schweiz
  • Länderverzeichnis
  • Für 7 Tage
  • Wassertemperatur
  • Wetterkarte
  • Widgets
  • user-avatar
    Anmelden

    Stündliche Wetter Gitega

    Heute, 10 April, Freitag

    Zeit Temperatur Niederschläge Wind Luftdruck Luftfeuchtigkeit
    00:00 +16°C° 0 mm 1 m/S 622 mmHg 94%
    01:00 +16°C° 0 mm 1 m/S 622 mmHg 94%
    02:00 +16°C° 0 mm 1 m/S 622 mmHg 95%
    03:00 +15°C° 0.1 mm 0 m/S 622 mmHg 95%
    04:00 +15°C° 0.1 mm 0 m/S 622 mmHg 95%
    05:00 +15°C° 0.1 mm 0 m/S 622 mmHg 95%
    06:00 +16°C° 0 mm 1 m/S 623 mmHg 94%
    07:00 +17°C° 0 mm 2 m/S 624 mmHg 94%
    08:00 +18°C° 0 mm 2 m/S 624 mmHg 94%
    09:00 +19°C° 0.1 mm 3 m/S 625 mmHg 89%
    10:00 +20°C° 0.1 mm 3 m/S 625 mmHg 85%
    11:00 +21°C° 0.1 mm 4 m/S 625 mmHg 80%
    12:00 +21°C° 0.5 mm 4 m/S 624 mmHg 80%
    13:00 +22°C° 0.5 mm 4 m/S 623 mmHg 80%
    14:00 +22°C° 0.5 mm 3 m/S 623 mmHg 79%
    15:00 +22°C° 0.7 mm 3 m/S 622 mmHg 82%
    16:00 +21°C° 0.7 mm 3 m/S 622 mmHg 85%
    17:00 +21°C° 0.7 mm 2 m/S 622 mmHg 88%
    18:00 +20°C° 0.3 mm 2 m/S 622 mmHg 90%
    19:00 +19°C° 0.3 mm 1 m/S 623 mmHg 93%
    20:00 +18°C° 0.3 mm 1 m/S 623 mmHg 96%
    21:00 +18°C° 0 mm 1 m/S 623 mmHg 96%
    22:00 +16°C° 0 mm 1 m/S 623 mmHg 96%
    23:00 +15°C° 0 mm 0 m/S 623 mmHg 96%

    Morgen, 11 April, Samstag

    Zeit Temperatur Niederschläge Wind Luftdruck Luftfeuchtigkeit
    00:00 +16°C° 0 mm 1 m/S 623 mmHg 96%
    01:00 +16°C° 0 mm 1 m/S 622 mmHg 96%
    02:00 +16°C° 0 mm 1 m/S 622 mmHg 96%
    03:00 +15°C° 0 mm 0 m/S 622 mmHg 96%
    04:00 +14°C° 0 mm 0 m/S 622 mmHg 96%
    05:00 +14°C° 0 mm 0 m/S 622 mmHg 96%
    06:00 +16°C° 0 mm 1 m/S 623 mmHg 94%
    07:00 +19°C° 0 mm 1 m/S 624 mmHg 92%
    08:00 +20°C° 0 mm 1 m/S 625 mmHg 91%
    09:00 +20°C° 0.3 mm 2 m/S 625 mmHg 87%
    10:00 +21°C° 0.3 mm 3 m/S 625 mmHg 83%
    11:00 +22°C° 0.3 mm 4 m/S 625 mmHg 79%
    12:00 +22°C° 0.3 mm 4 m/S 624 mmHg 77%
    13:00 +23°C° 0.3 mm 4 m/S 624 mmHg 76%
    14:00 +24°C° 0.3 mm 3 m/S 623 mmHg 74%
    15:00 +24°C° 0.2 mm 3 m/S 623 mmHg 77%
    16:00 +22°C° 0.2 mm 3 m/S 622 mmHg 80%
    17:00 +21°C° 0.2 mm 2 m/S 622 mmHg 83%
    18:00 +20°C° 0.1 mm 2 m/S 622 mmHg 87%
    19:00 +19°C° 0.1 mm 2 m/S 622 mmHg 91%
    20:00 +18°C° 0.1 mm 1 m/S 623 mmHg 94%
    21:00 +18°C° 0 mm 1 m/S 622 mmHg 95%
    22:00 +16°C° 0 mm 1 m/S 622 mmHg 95%
    23:00 +16°C° 0 mm 1 m/S 622 mmHg 95%

    übermorgen, 12 April, Sonntag

    Zeit Temperatur Niederschläge Wind Luftdruck Luftfeuchtigkeit
    00:00 +16°C° 0 mm 1 m/S 622 mmHg 95%
    01:00 +16°C° 0 mm 1 m/S 622 mmHg 95%
    02:00 +16°C° 0 mm 1 m/S 622 mmHg 96%
    03:00 +16°C° 0 mm 1 m/S 622 mmHg 96%
    04:00 +15°C° 0 mm 1 m/S 622 mmHg 96%
    05:00 +15°C° 0 mm 1 m/S 622 mmHg 96%
    06:00 +18°C° 0 mm 1 m/S 623 mmHg 93%
    07:00 +19°C° 0 mm 1 m/S 624 mmHg 91%
    08:00 +20°C° 0 mm 1 m/S 625 mmHg 88%
    09:00 +21°C° 0.3 mm 2 m/S 625 mmHg 84%
    10:00 +23°C° 0.3 mm 2 m/S 625 mmHg 80%
    11:00 +24°C° 0.3 mm 3 m/S 625 mmHg 76%
    12:00 +24°C° 0.4 mm 3 m/S 625 mmHg 74%
    13:00 +25°C° 0.4 mm 2 m/S 624 mmHg 73%
    14:00 +25°C° 0.4 mm 2 m/S 623 mmHg 72%
    15:00 +24°C° 0.4 mm 2 m/S 623 mmHg 76%
    16:00 +24°C° 0.4 mm 2 m/S 622 mmHg 80%
    17:00 +23°C° 0.4 mm 1 m/S 622 mmHg 84%
    18:00 +22°C° 0.5 mm 1 m/S 622 mmHg 87%
    19:00 +20°C° 0.5 mm 1 m/S 622 mmHg 91%
    20:00 +19°C° 0.5 mm 1 m/S 623 mmHg 94%
    21:00 +18°C° 0.2 mm 1 m/S 623 mmHg 94%
    22:00 +18°C° 0.2 mm 1 m/S 622 mmHg 95%
    23:00 +18°C° 0.2 mm 1 m/S 622 mmHg 95%

    13 April, Montag

    Zeit Temperatur Niederschläge Wind Luftdruck Luftfeuchtigkeit
    00:00 +18°C° 0.1 mm 1 m/S 622 mmHg 95%
    01:00 +16°C° 0.1 mm 1 m/S 622 mmHg 94%
    02:00 +15°C° 0.1 mm 0 m/S 622 mmHg 94%
    03:00 +15°C° 0 mm 0 m/S 622 mmHg 94%
    04:00 +16°C° 0 mm 1 m/S 622 mmHg 93%
    05:00 +16°C° 0 mm 1 m/S 622 mmHg 93%
    06:00 +18°C° 0 mm 1 m/S 623 mmHg 90%
    07:00 +18°C° 0 mm 0 m/S 624 mmHg 87%
    08:00 +19°C° 0 mm 0 m/S 625 mmHg 84%
    09:00 +22°C° 0.7 mm 1 m/S 625 mmHg 82%
    10:00 +23°C° 0.7 mm 2 m/S 625 mmHg 80%
    11:00 +24°C° 0.7 mm 3 m/S 625 mmHg 78%
    12:00 +24°C° 1 mm 2 m/S 624 mmHg 78%
    13:00 +24°C° 1 mm 2 m/S 623 mmHg 78%
    14:00 +25°C° 1 mm 2 m/S 623 mmHg 77%
    15:00 +24°C° 0.9 mm 2 m/S 623 mmHg 80%
    16:00 +24°C° 0.9 mm 1 m/S 622 mmHg 83%
    17:00 +23°C° 0.9 mm 1 m/S 622 mmHg 86%
    18:00 +22°C° 0.8 mm 1 m/S 622 mmHg 88%
    19:00 +20°C° 0.8 mm 1 m/S 622 mmHg 91%
    20:00 +17°C° 0.8 mm 0 m/S 622 mmHg 93%
    21:00 +17°C° 0.1 mm 0 m/S 622 mmHg 93%
    22:00 +16°C° 0.1 mm 0 m/S 622 mmHg 93%
    23:00 +18°C° 0.1 mm 1 m/S 622 mmHg 93%

    14 April, Dienstag

    Zeit Temperatur Niederschläge Wind Luftdruck Luftfeuchtigkeit
    00:00 +18°C° 0.6 mm 1 m/S 622 mmHg 93%
    01:00 +18°C° 0.6 mm 1 m/S 622 mmHg 93%
    02:00 +18°C° 0.6 mm 1 m/S 621 mmHg 93%
    03:00 +18°C° 0.5 mm 1 m/S 622 mmHg 93%
    04:00 +18°C° 0.5 mm 1 m/S 622 mmHg 92%
    05:00 +18°C° 0.5 mm 1 m/S 622 mmHg 91%
    06:00 +17°C° 0.1 mm 0 m/S 623 mmHg 90%
    07:00 +18°C° 0.1 mm 0 m/S 624 mmHg 88%
    08:00 +19°C° 0.1 mm 0 m/S 624 mmHg 87%
    09:00 +22°C° 0.9 mm 1 m/S 625 mmHg 83%
    10:00 +23°C° 0.9 mm 1 m/S 625 mmHg 79%
    11:00 +24°C° 0.9 mm 2 m/S 625 mmHg 76%
    12:00 +25°C° 1.3 mm 1 m/S 624 mmHg 76%
    13:00 +25°C° 1.3 mm 1 m/S 624 mmHg 76%
    14:00 +25°C° 1.3 mm 1 m/S 623 mmHg 76%
    15:00 +24°C° 1.1 mm 1 m/S 623 mmHg 79%
    16:00 +24°C° 1.1 mm 1 m/S 623 mmHg 83%
    17:00 +23°C° 1.1 mm 1 m/S 622 mmHg 86%
    18:00 +22°C° 1.8 mm 1 m/S 622 mmHg 87%
    19:00 +21°C° 1.8 mm 1 m/S 622 mmHg 89%
    20:00 +19°C° 1.8 mm 1 m/S 622 mmHg 90%
    21:00 +19°C° 0.3 mm 1 m/S 623 mmHg 91%
    22:00 +19°C° 0.3 mm 1 m/S 623 mmHg 91%
    23:00 +18°C° 0.3 mm 1 m/S 623 mmHg 91%

    15 April, Mittwoch

    Zeit Temperatur Niederschläge Wind Luftdruck Luftfeuchtigkeit
    00:00 +18°C° 0.2 mm 1 m/S 623 mmHg 91%
    01:00 +18°C° 0.2 mm 1 m/S 622 mmHg 91%
    02:00 +18°C° 0.2 mm 1 m/S 622 mmHg 91%
    03:00 +18°C° 0.4 mm 1 m/S 622 mmHg 91%
    04:00 +16°C° 0.4 mm 0 m/S 622 mmHg 91%
    05:00 +16°C° 0.4 mm 0 m/S 623 mmHg 91%
    06:00 +16°C° 0.1 mm 0 m/S 623 mmHg 91%
    07:00 +17°C° 0.1 mm 0 m/S 624 mmHg 91%
    08:00 +17°C° 0.1 mm 0 m/S 624 mmHg 91%
    09:00 +20°C° 0.2 mm 1 m/S 624 mmHg 90%
    10:00 +20°C° 0.2 mm 1 m/S 625 mmHg 89%
    11:00 +21°C° 0.2 mm 1 m/S 625 mmHg 89%
    12:00 +22°C° 1 mm 1 m/S 624 mmHg 86%
    13:00 +23°C° 1 mm 2 m/S 624 mmHg 83%
    14:00 +24°C° 1 mm 2 m/S 623 mmHg 80%
    15:00 +24°C° 0.6 mm 1 m/S 623 mmHg 81%
    16:00 +23°C° 0.6 mm 1 m/S 623 mmHg 82%
    17:00 +21°C° 0.6 mm 0 m/S 623 mmHg 83%
    18:00 +20°C° 1.9 mm 0 m/S 623 mmHg 85%
    19:00 +21°C° 1.9 mm 1 m/S 623 mmHg 88%
    20:00 +20°C° 1.9 mm 1 m/S 623 mmHg 91%
    21:00 +19°C° 0.8 mm 1 m/S 623 mmHg 91%
    22:00 +19°C° 0.8 mm 1 m/S 623 mmHg 91%
    23:00 +19°C° 0.8 mm 1 m/S 623 mmHg 92%
    Mehr zeigen